Location: *
(49.0044°N, 9.5056°E)
Time: 01:03:40
(UTC+00:00)

Cosmos 1939 Rocket - Pass Details

Date: 22 September 2019
Orbit: 534 x 583 km, 97.4° (Epoch: 13 October)

Event Time Altitude Azimuth Distance (km) Brightness Sun altitude
Rises 18:34:56 0° 180° (S) 2,672 6.2 -12.8°
Reaches altitude 10° 18:37:05 10° 186° (S) 1,785 5.3 -13.2°
Maximum altitude 18:40:49 47° 261° (W) 717 3.8 -13.8°
Drops below altitude 10° 18:44:35 10° 336° (NNW) 1,803 6.0 -14.4°
Sets 18:46:46 0° 343° (NNW) 2,703 6.9 -14.7°
